Погода в Перито Морено

Аргентина     46°35′27″S   70°55′17″W
темп.,
°C
ветер,
м/с
пор.,
м/с
влажн.,
%
обл.,
%
осадки,
мм/ч
давл.,
гПа
погр.,
м
22 апреля, чт
чт2200:00+6зсз61068100 0.0 1012263
03:00+5зсз357175 0.0 101381
06:00+5ссз347198 0.0 101158
09:00+5ссз2268100 0.0 101211
12:00+8з23555 0.0 1011605
15:00+10з224894 0.0 1009681
18:00+10з33495 0.0 1009445
21:00+8з22675 0.0 101117
23 апреля, пт
пт2300:00+7зсз22785 0.0 101120
03:00+7сз227854 0.0 101231
06:00+5зсз22845 0.0 101212
09:00+5ссз33805 0.0 101423
12:00+10зсз67585 0.0 1014854
15:00+11з67483 0.0 1013929
18:00+11з8954100 0.0 1013847
21:00+9зсз8126571 0.0 1015343
24 апреля, сб
сб2400:00+8сз611715 0.0 1016255
03:00+7сз57745 0.0 1018115
06:00+7сз4571100 0.0 101871
09:00+7сз337098 0.0 101836
12:00+11зсз710615 0.0 1018697
15:00+13з912540 0.0 1016764
18:00+11з9126563 0.0 1016540
21:00+10зсз813709 0.0 1018339
25 апреля, вс
вс2500:00+9зсз7117561 0.0 1018277
03:00+8зсз597899 0.0 1018233
06:00+7сз347887 0.0 101751
09:00+6сз22735 0.0 101710
12:00+11з465461 0.0 1016568
15:00+13зсз79437 0.0 1013775
18:00+13з71150100 0.0 1012579
21:00+11зсз81365100 0.0 1013317
26 апреля, пн
пн2600:00+9зсз71271100 0.0 1013269
03:00+9зсз71275100 0.0 1012307
06:00+8зсз81475100 0.0 1011287
09:00+8зсз4676100 0.0 1011116
12:00+12зсз5854100 0.0 1010588
15:00+15зсз3548100 0.0 1007668
18:00+13сз5859100 0.0 1006491
21:00+12сз477383 0.0 1005152